www.pogodaiklimat.ru

Погода и климат >> Архив погоды >> Россия >> Амурская область >> Мазаново


ПОГОДА в Мазаново

  • Прогноз погоды в Мазаново
  • Монитор погоды в Мазаново

АРХИВ ПОГОДЫ в Мазаново

Время (UTC), дата Ветер
(напр.,м/с)
 
Видим.   Явления Облачность Т
(С)
Тd
(С)
f
(%)
Тe
(С)
Тes
(С)
Комфортность P
(гПа)
Po
(гПа)
Тmin
(С)
Tmax
(С)
R
(мм)
R24
(мм)
S
(см)
21 17.08 СВ 1 10 км слаб. дождь 10/0 600 м
[As op]
+11.6 +11.0 96 +11 +11 1003.1 984.0
00 18.08 СВ 2 10 км слаб. дождь 10/0 600 м
[As op]
+12.0 +11.1 94 +11 +12 1002.9 983.8 +11.6 4
03 18.08 С 2 10 км слаб. дождь 10/0 600 м
[As op]
+12.8 +11.9 94 +12 +12 1004.3 985.3
06 18.08 С 3 50 км {дождь} 10/10 600 м
[Frnb Ns]
+14.1 +12.8 92 +13 +13 1005.6 986.7
09 18.08 С 2 50 км {дождь} 10/10 600 м
[Frnb Ns]
+14.1 +12.8 92 +14 +14 1005.6 986.7
12 18.08 С 1 50 км {дождь} 10/10 600 м
[Frnb]
+13.1 +12.5 96 +13 +13 1006.0 986.9 +14.5 4
15 18.08 С 1 50 км 10/0 600 м
[As op]
+12.8 +12.2 96 +13 +13 1007.1 988.0
18 18.08 СЗ 1 50 км 10/0
[As op]
+12.8 +12.2 96 +13 +13 1008.4 989.3
21 18.08 СЗ 1 50 км 10/10 600 м
[Frnb Ns]
+12.6 +12.0 96 +13 +13 1009.8 990.7
00 19.08 З 2 50 км 10/0 600 м
[As op]
+14.4 +12.1 86 +14 +17 1009.4 990.3 +12.6
03 19.08 З 2 50 км 10/8 600 м
[Cb cap Ac trans]
+16.9 +12.2 74 +17 +17 1010.9 992.0
06 19.08 З 2 50 км 10/8 600 м
[Cb cap Ac trans]
+17.0 +12.9 77 +17 +17 1010.9 992.0
09 19.08 З 1 50 км 10/10 600 м
[Frnb]
+16.4 +12.6 78 +17 +17 1012.2 993.3
12 19.08 З 1 50 км 10/10 600 м
[Sc]
+14.6 +13.1 91 +15 +15 1012.0 992.9 +18.4
15 19.08 З 1 50 км 10/10 600 м
[Sc]
+14.0 +13.0 94 +14 +14 1013.8 994.7
18 19.08 ЮЗ 1 50 км 10/10 600 м
[Sc]
+13.3 +12.7 96 +13 +13 1013.9 994.7
21 19.08 СЗ 1 50 км 9/9 600 м
[Sc]
+13.1 +12.5 96 +13 +13 1013.9 994.7
00 20.08 СЗ 1 50 км 9/8 600 м
[Cb cap Ci fib]
+17.1 +12.3 73 +18 +19 1012.5 993.6 +12.9
03 20.08 ЮЗ 1 50 км 10/10 600 м
[Sc]
+17.9 +11.0 64 +19 +19 1013.6 994.7
06 20.08 ЮВ 1 50 км 10 баллов +19.5 +11.8 61 +22 +22 комфорт 1012.0 993.3
09 20.08 штиль 0 50 км 10/3 600 м
[Cb cap Ac trans Ci fib]
+19.8 +11.8 60 +21 +21 комфорт 1012.0 993.3
12 20.08 В 1 50 км 4/0
[Ci fib]
+13.5 +12.5 94 +14 +14 1011.2 992.0 +20.5
15 20.08 С 1 50 км 10/0
[Cs]
+12.1 +11.6 97 +12 +12 1011.2 992.0
18 20.08 С 1 50 км 10/0
[Ac trans Cs]
+11.8 +11.3 97 +12 +12 1011.2 992.0
21 20.08 СВ 2 50 км 10/9 600 м
[Sc Ac trans Ci fib]
+12.7 +12.1 96 +12 +12 1009.8 990.7
00 21.08 В 3 50 км 10/0
[Ac trans]
+17.4 +13.7 79 +17 +19 1008.3 989.5 +11.5
03 21.08 В 4 50 км 10/8 600 м
[Cb cap Ac trans Ci fib]
+22.2 +14.6 62 +26 +26 душно 1007.8 989.3
06 21.08 В 3 50 км 7 баллов +23.5 +14.8 58 +26 +28 жарко 1006.3 988.0
09 21.08 В 2 50 км 10/6 600 м
[Cb calv Ac trans Ci fib]
+20.9 +16.1 74 +25 +25 комфорт 1006.5 988.0
12 21.08 В 2 50 км 10/10 600 м
[Sc]
+18.7 +15.3 81 +20 +20 1006.7 988.0 +24.0
15 21.08 СВ 2 50 км 10/10 600 м
[Sc]
+17.3 +15.1 87 +18 +18 1008.1 989.3
18 21.08 СВ 3 50 км 10/10 600 м
[Sc]
+16.0 +15.0 94 +15 +15 1008.2 989.3
21 21.08 СВ 2 50 км 10/10 600 м
[Sc]
+15.0 +13.7 92 +15 +15 1008.2 989.3
00 22.08 СВ 3 50 км 10/6 600 м
[Sc Ac trans]
+17.2 +14.7 85 +17 +18 1008.3 989.5 +15.0
03 22.08 СВ 3 50 км в посл. час ливневой дождь 10/8 600 м
[Cb cap As trans]
+18.1 +16.1 88 +18 +18 1009.4 990.7
06 22.08 СВ 3 50 км {ливн. осадки} 9/5 600 м
[Cb cap Ac trans Ci ing]
+20.4 +15.8 75 +24 +24 комфорт 1009.3 990.7
09 22.08 С 2 10 км слаб. ливневой дождь 9/9 600 м
[Cb cap]
+17.8 +16.7 93 +18 +18 1010.8 992.0
12 22.08 СВ 2 50 км в посл. час ливневой дождь 10/10 600 м
[Cb cap]
+16.6 +15.5 93 +17 +17 1010.6 991.7 +21.3 1
15 22.08 С 1 10 км слаб. морось 10/10 600 м
[St]
+16.3 +15.5 95 +17 +17 1012.2 993.3
18 22.08 С 1 50 км 10 баллов +15.5 +14.9 96 +16 +16 1012.3 993.3
21 22.08 С 1 50 км 10/0
[Ac As]
+14.6 +14.0 96 +15 +15 1013.8 994.7
00 23.08 С 2 50 км 8/0
[Ac trans Ci fib]
+18.1 +15.0 82 +19 +23 1013.2 994.3 +14.6 0.4
03 23.08 С 2 50 км 8/3 600 м
[Cu med, cong Ci fib]
+22.7 +14.8 61 +26 +30 жарко 1013.2 994.7
06 23.08 СВ 2 50 км 7 баллов +24.4 +13.9 52 +27 +29 жарко 1011.7 993.3
09 23.08 СЗ 1 50 км 10/3 600 м
[Cb cap Ci fib]
+20.4 +15.6 74 +24 +24 комфорт 1011.9 993.3
12 23.08 штиль 0 50 км 1/0
[Ac lent]
+14.9 +14.3 96 +15 +15 1012.2 993.1 +24.6
15 23.08 штиль 0 500 м туман ясно +13.4 +12.9 97 +13 +13 1013.8 994.7
18 23.08 СЗ 1 н/о н/о +11.3 +11.0 98 +11 1014.0 994.7
21 23.08 С 2 50 км 5 баллов +13.1 +12.5 96 +12 +12 1013.9 994.7
00 24.08 С 2 50 км {туман} 3/1 600 м
[Cb calv Ac trans]
+17.3 +13.8 80 +18 +22 1012.6 993.6 +10.7
03 24.08 З 1 50 км 5 баллов +23.1 +15.2 61 +27 +34 душно 1011.8 993.3
06 24.08 С 2 50 км 6 баллов +23.9 +14.0 54 +26 +30 жарко 1010.4 992.0
09 24.08 С 1 50 км 2 балла +23.2 +13.9 56 +27 +27 душно 1010.4 992.0
12 24.08 штиль 0 50 км 1/1 600 м
[Cb cap]
+14.2 +13.6 96 +14 +14 1011.0 991.9 +24.5
15 24.08 С 1 50 км ясно +11.7 +11.2 97 +11 +11 1012.5 993.3

 

Местоположение метеостанции Мазаново (Амурская область, Россия): широта 51.63 долгота 128.80 высота над уровнем моря 161 м.

В архиве по умолчанию представлена погода в Мазаново за последнюю неделю. Архивные данные за месяц целиком и за предыдущие месяцы, начиная с января 2011 года, Вы можете получить, выбрав интересующий диапазон дат из раскрывающегося списка и нажав кнопку "Ввод!".


*Определитесь, кто Вы:
робот инопланетянин человек

Внимание! Время в таблицах - всемирное. Для получения местного времени необходимо прибавить поправку, которая равна 9 ч.

Смотрите также архив погоды в соседних городах и на ближайших метеорологических станциях:

Погода в Свободном (Амурская область, Россия) (52 км)
Погода в Белогорске (Амурская область, Россия) (84 км)
Погода в Шимановске (Амурская область, Россия) (91 км)
Погода в Братолюбовке (Амурская область, Россия) (101 км)
Погода в Норске (Амурская область, Россия) (110 км)
Погода в Саскале (Амурская область, Россия) (131 км)
Погода в Екатеринославке (Амурская область, Россия) (141 км)
Погода в Сергеевке (Амурская область, Россия) (141 км)
Погода в Хума (Хэйлунцзян, Китай) (149 км)
Погода в Октябрьский Прииск (Амурская область, Россия) (153 км)

Пояснения к столбцам:

Ветер - указаны скорость ветра в м/с - средняя за 10 мин, порывы в срок и между сроками (в фигурных скобках) и направление, откуда дует ветер: С - северный, СВ - северо-восточный, В - восточный, ЮВ - юго-восточный, Ю - южный, ЮЗ - юго-западный, З - западный, СЗ - северо-западный.
Видимость - горизонтальная дальность видимости в метрах или километрах. При видимости от 1 до 10 км при отсутствии осадков обычно наблюдается дымка, при ухудшении видимости до 1 км и менее - туман. В сухую погоду видимость может ухудшаться дымом, пылью или мглою.
Явления - указаны атмосферные явления, наблюдавшиеся в срок или в последний час перед сроком; фигурными скобками обозначены явления, наблюдавшиеся между сроками (за 1-3 часа до срока); квадратными скобками обозначены град или гололедные отложения с указанием их диаметра в мм.
Облачность - указаны через наклонную черту общая и нижняя облачность в баллах и высота нижней границы облаков в метрах; квадратными скобками обозначены формы облаков: Ci - перистые, Cs - перисто-слоистые, Cc - перисто-кучевые, Ac - высококучевые, As - высокослоистые, Sc - слоисто-кучевые, Ns - слоисто-дождевые, Cu - кучевые, Cb - кучево-дождевые. Подробнее классификацию облаков см. в Атласе облаков (PDF).
T - Температура воздуха - температура, измеренная на высоте 2 м над землей.
Td - Температура точки росы - температура, при понижении до которой содержащийся в воздухе водяной пар достигнет насыщения.
f - Относительная влажность воздуха - влажноcть воздуха, измеренная на высоте 2 м над землей.
Te - Эффективная температура - температура, которую ощущает одетый по сезону человек в тени. Характеристика душности погоды. При расчете учитывается влияние влажности воздуха и скорости ветра на теплоощущения человека.
Tes - Эффективная температура на солнце - температура, которую ощущает человек, с поправкой на солнечный нагрев. Характеристика знойности погоды. Зависит от высоты солнца над горизонтом, облачности и скорости ветра. Ночью, в пасмурную погоду, а также при ветре 12 м/с и более поправка равна нулю.
P - Атмосферное давление - приведенное к уровню моря атмосферное давление.
Po - Атмосферное давление - измеренное на уровне метеостанции атмосферное давление.
Tmin - Минимальная температура - минимум температуры воздуха на высоте 2 м над землей.
Tmax - Максимальная температура - максимум температуры воздуха на высоте 2 м над землей.
R - Количество осадков - Количество выпавших осадков за период времени, мм. При наведении курсора мыши на число - период времени, за который выпало указанное количество осадков.
R24 - Количество осадков - Количество выпавших осадков за 24 часа, мм.
S - Снежный покров - Высота снежного покрова, см. При наведении курсора мыши на число - состояние снежного покрова и степень покрытия местности в баллах.